Flag for Canada Weather past 2 weeks in Regina, Saskatchewan, Canada

Now
55 °F

Sprinkles. Fog.


Feels Like: 49 °F
Forecast: 53 / 74 °F
Wind: 31 mph from Northwest

Location: Regina Weather Station

Current Time: Jul 28, 2015 at 7:33:06 PM

Latest Report: Jul 28, 2015 at 7:00 PM


Visibility: 3 mi

Pressure: 29.70 "Hg (27.72 "Hg at 577m altitude)

Humidity: 94%

Dew point: 54 °F

Location of ReginaLocation

Historic Weather in Regina — Graph

°F

Regina temperature yesterday

Maximum temperature yesterday: 70 °F (at 5:00 PM)
Minimum temperature yesterday: 59 °F (at 7:00 AM)
Average temperature yesterday: 63 °F

Past Weeks' High & Low Weather Summary

 TemperatureHumidityPressure
High90 °F (Jul 25, 4:00 PM)100% (Jul 14, 1:00 AM)30.06 "Hg (Jul 14, 1:00 AM)
Low46 °F (Jul 17, 3:00 AM)25% (Jul 25, 5:00 PM)29.27 "Hg (Jul 28, 11:00 AM)
Average67 °F72%29.78 "Hg
* Reported Jul 13 6:00 PM — Jul 28 6:00 PM, Regina, Weather by CustomWeather, © 2015

Note: Actual official high and low records may vary slightly from our data, if they occured in-between our weather recording intervals... More about our weather records

Advertising

Regina weather history for previous 24 hours

 ConditionsComfort  
Time TempWeatherWind HumidityBarometerVisibility
6:00 PM
Tue, Jul 28
55 °FSprinkles. Fog.41 mph94%29.63 "Hg3 mi
5:00 PM57 °FSprinkles. Fog.39 mph94%29.57 "Hg4 mi
4:00 PM57 °FSprinkles. Overcast.37 mph94%29.49 "Hg12 mi
3:00 PM59 °FSprinkles. Fog.28 mph94%29.40 "Hg1 mi
2:00 PM63 °FSprinkles. Fog.9 mph94%29.33 "Hg3 mi
1:00 PM63 °FSprinkles. Low clouds.9 mph94%29.29 "Hg10 mi
12:00 PM61 °FSprinkles. Fog.5 mph100%29.28 "Hg2 mi
11:49 AM61 °FSprinkles. Fog.6 mph100%29.28 "Hg3 mi
11:00 AM59 °FSprinkles. Fog.12 mph100%29.27 "Hg2 mi
10:00 AM61 °FSprinkles. Fog.7 mph100%29.28 "Hg2 mi
9:00 AM63 °FLow clouds.7 mph94%29.28 "Hg10 mi
8:00 AM63 °FLow clouds.9 mph100%29.31 "Hg12 mi
7:00 AM63 °FLow clouds.6 mph94%29.32 "Hg12 mi
6:51 AM63 °FLow clouds.7 mph94%29.33 "Hg12 mi
6:00 AM63 °FLow clouds.5 mph94%29.34 "Hg12 mi
5:04 AM63 °FSprinkles. Low clouds.2 mph94%29.37 "Hg12 mi
4:04 AM61 °FSprinkles. Low clouds.12 mph100%29.42 "Hg6 mi
3:00 AM63 °FLow clouds.17 mph94%29.41 "Hg15 mi
2:00 AM63 °FLow clouds.20 mph94%29.45 "Hg15 mi
1:00 AM61 °FSprinkles. Mostly cloudy.16 mph94%29.53 "Hg15 mi
12:00 AM61 °FThunderstorms. Mostly cloudy.18 mph94%29.53 "Hg15 mi
11:00 PM
Mon, Jul 27
61 °FThunderstorms. Mostly cloudy.15 mph94%29.66 "Hg4 mi
10:49 PM61 °FThunderstorms. Overcast.24 mph94%29.64 "Hg3 mi
10:00 PM63 °FThunderstorms. Mostly cloudy.17 mph83%29.61 "Hg12 mi
9:00 PM63 °FThunderstorms. Mostly cloudy.20 mph88%29.65 "Hg2 mi
8:00 PM59 °FThunderstorms. More clouds than sun.14 mph100%29.69 "Hg2 mi
7:00 PM63 °FThunderstorms. Partly sunny.24 mph88%29.70 "Hg12 mi
Weather by CustomWeather, © 2015

See weather overviewHow to use our weather pages